GW4827 Weather Reports


Display with metric or nautical units.
time (UTC)temp
F
wind
direction
speed
MPH
gust
MPH
rain 1hr
in
rain 24hr
in
rain mn
in
humidity
%
barometer
mb
20260507021138 58 203 4.0 10.0 0.00 0.08 0.08 98 1006.0
20260507020657 58 0.0 9.0 0.00 0.08 0.08 98 1006.0
20260507020137 58 228 5.0 9.0 0.00 0.08 0.08 98 1006.4
20260507015636 58 274 5.0 11.0 0.00 0.08 0.08 98 1006.5
20260507015136 58 218 11.0 14.0 0.00 0.08 0.08 98 1006.4
20260507014657 58 200 3.0 8.0 0.00 0.08 0.08 98 1006.2
20260507014136 58 240 5.0 6.0 0.00 0.08 0.08 98 1006.5
20260507013636 58 183 3.0 11.0 0.00 0.08 0.08 98 1006.5
20260507013135 58 217 1.0 7.0 0.00 0.08 0.08 98 1006.6
20260507012635 58 188 2.0 9.0 0.00 0.08 0.08 98 1006.7
20260507012035 58 185 4.0 9.0 0.00 0.08 0.08 98 1006.6
20260507011536 58 191 8.0 11.0 0.00 0.08 0.08 98 1006.9
20260507011034 58 216 4.0 6.0 0.00 0.08 0.08 98 1006.9
20260507010534 58 214 4.0 7.0 0.00 0.08 0.08 98 1006.7
20260507010034 58 208 4.0 11.0 0.00 0.08 0.08 98 1006.8
20260507005555 58 184 6.0 15.0 0.00 0.08 0.08 98 1006.9
20260507005054 58 237 6.0 6.0 0.00 0.08 0.08 98 1006.9
20260507004534 58 194 6.0 13.0 0.00 0.08 0.08 98 1007.0
20260507004033 58 239 8.0 11.0 0.00 0.08 0.08 98 1006.9
20260507003534 58 150 3.0 6.0 0.01 0.08 0.08 98 1006.8
20260507003033 58 157 2.0 7.0 0.01 0.08 0.08 98 1006.7
20260507002432 58 217 8.0 13.0 0.01 0.08 0.08 98 1006.6
20260507001932 58 159 5.0 9.0 0.02 0.08 0.08 98 1006.7
20260507001432 57 142 5.0 9.0 0.02 0.08 0.08 98 1006.6
20260507000932 58 166 4.0 13.0 0.02 0.08 0.08 98 1006.6
20260507000432 58 208 4.0 11.0 0.02 0.08 0.08 98 1006.5
20260507000011 58 228 6.0 7.0 0.02 0.08 0.08 98 1006.5
20260506235431 58 233 8.0 17.0 0.02 0.08 0.08 98 1006.3
20260506234932 58 216 8.0 17.0 0.02 0.08 0.08 98 1006.5
20260506234431 58 200 2.0 6.0 0.02 0.08 0.08 98 1006.5
20260506233931 58 195 7.0 12.0 0.02 0.07 0.07 98 1006.4
20260506233430 58 0.0 8.0 0.01 0.07 0.07 98 1006.2
20260506232930 58 210 2.0 9.0 0.01 0.07 0.07 98 1006.3
20260506232330 58 216 3.0 10.0 0.01 0.07 0.07 98 1006.4
20260506231830 58 189 6.0 9.0 0.01 0.06 0.06 97 1006.1
20260506231350 59 193 4.0 10.0 0.01 0.06 0.06 97 1006.5
20260506230829 59 247 3.0 8.0 0.00 0.06 0.06 97 1006.5
20260506230329 59 228 3.0 7.0 0.00 0.06 0.06 97 1006.4
20260506225829 59 181 2.0 9.0 0.00 0.06 0.06 97 1006.2
20260506225329 59 150 7.0 8.0 0.00 0.06 0.06 96 1006.5
20260506224848 59 251 4.0 6.0 0.00 0.06 0.06 97 1006.4
20260506224328 59 236 4.0 6.0 0.00 0.06 0.06 97 1006.4
20260506223829 59 278 4.0 6.0 0.01 0.06 0.06 97 1006.4
20260506223327 59 161 3.0 7.0 0.01 0.06 0.06 97 1006.5
20260506222828 59 163 2.0 12.0 0.02 0.06 0.06 97 1006.6
20260506222227 59 221 10.0 15.0 0.02 0.06 0.06 97 1006.6
20260506221727 59 192 2.0 15.0 0.02 0.06 0.06 97 1006.6
20260506221227 59 225 7.0 9.0 0.02 0.06 0.06 97 1006.8
20260506220727 59 207 5.0 7.0 0.02 0.06 0.06 97 1006.8
20260506220227 59 183 3.0 11.0 0.02 0.06 0.06 97 1006.8
20260506215727 59 194 8.0 10.0 0.02 0.06 0.06 97 1006.7
20260506215226 59 145 9.0 13.0 0.02 0.06 0.06 97 1006.9
20260506214726 59 228 9.0 11.0 0.02 0.05 0.05 97 1006.8
20260506214226 59 187 6.0 9.0 0.02 0.05 0.05 96 1007.0
20260506213725 60 198 4.0 21.0 0.02 0.05 0.05 96 1007.1
20260506213225 60 183 3.0 6.0 0.01 0.04 0.04 95 1007.1
20260506212725 60 0.0 14.0 0.01 0.04 0.04 94 1007.2
20260506212125 60 192 9.0 16.0 0.00 0.04 0.04 93 1007.2
20260506211725 60 194 9.0 12.0 0.00 0.03 0.03 93 1007.1
20260506211225 61 166 6.0 15.0 0.00 0.03 0.03 92 1007.3
20260506210724 61 205 4.0 11.0 0.00 0.03 0.03 92 1007.1
20260506210224 60 205 8.0 13.0 0.00 0.03 0.03 92 1007.1
20260506205724 61 141 6.0 18.0 0.00 0.03 0.03 91 1007.3
20260506205224 60 153 10.0 13.0 0.01 0.03 0.03 91 1007.2
20260506204743 60 185 7.0 9.0 0.01 0.03 0.03 92 1007.3
20260506204223 60 207 4.0 11.0 0.01 0.03 0.03 92 1007.4
20260506203723 60 225 7.0 11.0 0.02 0.03 0.03 91 1007.4
20260506203303 61 157 4.0 10.0 0.02 0.03 0.03 91 1007.7
20260506202723 61 256 4.0 20.0 0.02 0.03 0.03 90 1007.6
20260506202243 61 205 1.0 7.0 0.02 0.03 0.03 91 1007.7
20260506201722 61 155 4.0 6.0 0.02 0.03 0.03 91 1007.5
20260506201223 61 222 5.0 7.0 0.03 0.03 0.03 91 1007.3
20260506200722 61 182 5.0 14.0 0.03 0.03 0.03 91 1007.5
20260506200222 61 212 2.0 11.0 0.03 0.03 0.03 90 1007.4
20260506195722 62 227 5.0 8.0 0.03 0.03 0.03 90 1007.3
20260506195242 62 223 3.0 7.0 0.02 0.02 0.02 90 1007.3
20260506194722 62 156 4.0 6.0 0.02 0.02 0.02 88 1007.3
20260506194221 63 195 4.0 11.0 0.02 0.02 0.02 86 1007.3
20260506193801 63 175 2.0 6.0 0.02 0.02 0.02 85 1007.7
20260506193221 64 193 1.0 9.0 0.02 0.02 0.02 84 1007.8
20260506192721 64 0.0 8.0 0.01 0.01 0.01 83 1007.6
20260506192221 64 212 6.0 8.0 0.01 0.01 0.01 81 1007.7
20260506191721 65 163 5.0 13.0 0.01 0.01 0.01 80 1007.6
20260506191301 65 194 5.0 11.0 0.00 0.00 0.00 79 1007.4
20260506190720 66 176 6.0 9.0 0.00 0.00 0.00 75 1007.5
20260506190240 66 264 6.0 10.0 0.00 0.00 0.00 74 1007.3
20260506185720 67 187 8.0 15.0 0.00 0.00 0.00 71 1007.4
20260506185220 68 206 7.0 20.0 0.00 0.00 0.00 68 1007.6
20260506184720 68 169 12.0 16.0 0.00 0.00 0.00 67 1007.5
20260506184220 68 238 4.0 14.0 0.00 0.00 0.00 68 1007.6
20260506183719 69 241 6.0 7.0 0.00 0.00 0.00 68 1007.7
20260506183220 69 220 5.0 9.0 0.00 0.00 0.00 67 1007.5
20260506182719 69 191 4.0 13.0 0.00 0.00 0.00 65 1007.6
20260506182219 69 198 6.0 14.0 0.00 0.00 0.00 64 1007.8
20260506181738 70 166 9.0 15.0 0.00 0.00 0.00 63 1007.7
20260506181218 70 240 6.0 11.0 0.00 0.00 0.00 62 1007.7
20260506180717 70 201 4.0 12.0 0.00 0.00 0.00 61 1007.9
20260506180218 71 186 5.0 22.0 0.00 0.00 0.00 61 1007.7
20260506175717 71 140 13.0 21.0 0.00 0.00 0.00 60 1007.7
20260506175237 72 172 13.0 20.0 0.00 0.00 0.00 59 1008.2
20260506174717 72 132 6.0 12.0 0.00 0.00 0.00 58 1008.1
20260506174217 72 179 2.0 21.0 0.00 0.00 0.00 58 1008.0
20260506173716 73 167 12.0 15.0 0.00 0.00 0.00 58 1008.3
20260506173236 73 203 5.0 17.0 0.00 0.00 0.00 58 1008.0
20260506172716 73 217 4.0 13.0 0.00 0.00 0.00 57 1008.1
20260506172216 72 202 4.0 18.0 0.00 0.00 0.00 57 1008.2
20260506171716 72 250 7.0 11.0 0.00 0.00 0.00 60 1008.3
20260506171216 72 148 9.0 19.0 0.00 0.00 0.00 59 1008.3
20260506170715 73 187 5.0 16.0 0.00 0.00 0.00 59 1007.9
20260506170215 73 220 5.0 12.0 0.00 0.00 0.00 59 1007.8
20260506165715 72 142 8.0 19.0 0.00 0.00 0.00 61 1008.3
20260506165215 72 203 7.0 15.0 0.00 0.00 0.00 61 1008.3
20260506164755 72 242 11.0 15.0 0.00 0.00 0.00 61 1008.2
20260506164215 71 209 9.0 17.0 0.00 0.00 0.00 62 1008.5
20260506163714 71 167 4.0 18.0 0.00 0.00 0.00 62 1008.4
20260506163214 72 129 6.0 13.0 0.00 0.00 0.00 63 1008.4
20260506162714 71 148 10.0 16.0 0.00 0.00 0.00 63 1008.4
20260506162214 71 182 3.0 20.0 0.00 0.00 0.00 63 1008.5
20260506161713 71 144 9.0 11.0 0.00 0.00 0.00 63 1008.9
20260506161114 72 134 7.0 10.0 0.00 0.00 0.00 62 1008.9
20260506160613 71 148 8.0 15.0 0.00 0.00 0.00 63 1009.0
20260506160113 71 140 5.0 8.0 0.00 0.00 0.00 63 1008.8
20260506155613 71 199 3.0 10.0 0.00 0.00 0.00 63 1009.0
20260506155112 71 152 9.0 14.0 0.00 0.00 0.00 63 1009.2
20260506154612 71 216 10.0 15.0 0.00 0.00 0.00 63 1009.2
20260506154112 71 351 2.0 11.0 0.00 0.00 0.00 63 1009.3
20260506153612 71 150 3.0 11.0 0.00 0.00 0.00 62 1009.4
20260506153111 71 207 9.0 15.0 0.00 0.00 0.00 62 1009.4
20260506152612 72 263 15.0 17.0 0.00 0.00 0.00 61 1009.6
20260506152111 72 275 6.0 11.0 0.00 0.00 0.00 60 1009.8
20260506151511 72 215 7.0 17.0 0.00 0.00 0.00 61 1009.6
20260506151050 72 166 3.0 11.0 0.00 0.00 0.00 61 1009.6
20260506150531 72 178 2.0 20.0 0.00 0.00 0.00 62 1009.7
20260506150010 72 228 5.0 9.0 0.00 0.00 0.00 62 1009.6
20260506145510 71 222 3.0 15.0 0.00 0.00 0.00 63 1009.8
20260506145010 71 180 3.0 8.0 0.00 0.00 0.00 63 1009.7
20260506144510 71 168 2.0 11.0 0.00 0.00 0.00 64 1009.4
20260506144010 70 187 2.0 17.0 0.00 0.00 0.00 65 1009.6
20260506143509 70 160 4.0 5.0 0.00 0.00 0.00 65 1009.5
20260506143009 70 220 8.0 15.0 0.00 0.00 0.00 65 1009.5
20260506142509 70 207 3.0 18.0 0.00 0.00 0.00 65 1009.8
20260506142009 69 223 3.0 14.0 0.00 0.00 0.00 66 1009.7
20260506141529 69 151 8.0 13.0 0.00 0.00 0.00 67 1009.6
20260506140908 69 199 4.0 17.0 0.00 0.00 0.00 68 1009.4
20260506140408 68 204 10.0 15.0 0.00 0.00 0.00 69 1009.5
20260506135908 68 210 3.0 9.0 0.00 0.00 0.00 70 1009.6
20260506135408 68 226 8.0 14.0 0.00 0.00 0.00 71 1009.7
20260506134927 67 135 7.0 10.0 0.00 0.00 0.00 72 1009.5
20260506134407 67 154 5.0 13.0 0.00 0.00 0.00 73 1009.7
20260506133907 67 197 3.0 9.0 0.00 0.00 0.00 73 1009.7
20260506133407 66 187 5.0 13.0 0.00 0.00 0.00 75 1010.1
20260506132907 66 181 3.0 12.0 0.00 0.00 0.00 75 1010.3
20260506132407 65 166 4.0 10.0 0.00 0.00 0.00 75 1010.2
20260506131906 65 156 2.0 12.0 0.00 0.00 0.00 76 1010.4
20260506131406 65 184 6.0 10.0 0.00 0.00 0.00 76 1010.2
20260506130826 65 161 3.0 12.0 0.00 0.00 0.00 76 1010.3
20260506130306 65 190 3.0 13.0 0.00 0.00 0.00 76 1010.0
20260506125845 65 204 8.0 11.0 0.00 0.00 0.00 77 1010.1
20260506125306 64 147 6.0 13.0 0.00 0.00 0.00 78 1010.0
20260506124805 64 205 8.0 14.0 0.00 0.00 0.00 78 1010.2
20260506124305 63 189 5.0 14.0 0.00 0.00 0.00 79 1010.1
20260506123804 63 160 3.0 10.0 0.00 0.00 0.00 80 1010.3
20260506123324 63 196 1.0 14.0 0.00 0.00 0.00 81 1010.4
20260506122804 62 149 6.0 9.0 0.00 0.00 0.00 81 1010.3
20260506122306 62 255 1.0 8.0 0.00 0.00 0.00 82 1010.3
20260506121804 61 138 6.0 13.0 0.00 0.00 0.00 83 1010.1
20260506121204 61 184 3.0 11.0 0.00 0.00 0.00 83 1010.2
20260506120803 61 204 3.0 9.0 0.00 0.00 0.00 84 1010.6
20260506120303 61 176 6.0 8.0 0.00 0.00 0.00 84 1010.2
20260506115803 61 208 3.0 8.0 0.00 0.00 0.00 84 1010.7
20260506115306 60 155 4.0 10.0 0.00 0.00 0.00 84 1010.6
20260506114803 60 183 5.0 9.0 0.00 0.00 0.00 84 1010.6
20260506114402 60 217 12.0 15.0 0.00 0.00 0.00 85 1010.7
20260506113802 60 152 7.0 9.0 0.00 0.00 0.00 85 1010.7
20260506113302 60 218 6.0 9.0 0.00 0.00 0.00 84 1011.0
20260506112902 60 242 2.0 18.0 0.00 0.00 0.00 84 1010.8
20260506112305 60 189 6.0 6.0 0.00 0.00 0.00 84 1010.7
20260506111722 60 151 4.0 5.0 0.00 0.00 0.00 84 1010.6
20260506111201 60 252 6.0 15.0 0.00 0.00 0.00 84 1010.7
20260506110721 60 152 3.0 11.0 0.00 0.00 0.00 85 1010.6
20260506110201 60 174 9.0 12.0 0.00 0.00 0.00 85 1010.6
20260506105701 60 199 4.0 7.0 0.00 0.00 0.00 85 1010.5
20260506105322 60 201 6.0 7.0 0.00 0.00 0.00 85 1010.4
20260506104700 60 178 6.0 11.0 0.00 0.00 0.00 85 1010.4
20260506104200 60 229 2.0 9.0 0.00 0.00 0.00 85 1010.6
20260506103720 60 158 11.0 12.0 0.00 0.00 0.00 85 1010.6
20260506103159 60 242 3.0 9.0 0.00 0.00 0.00 85 1010.7
20260506102659 60 214 4.0 7.0 0.00 0.00 0.00 85 1010.7
20260506102240 60 153 4.0 4.0 0.00 0.00 0.00 85 1010.6
20260506101719 60 233 6.0 6.0 0.00 0.00 0.00 85 1010.7
20260506101059 60 232 1.0 12.0 0.00 0.00 0.00 84 1010.5
20260506100559 60 179 6.0 13.0 0.00 0.00 0.00 84 1010.5
20260506100058 60 237 5.0 8.0 0.00 0.00 0.00 84 1010.5
20260506095558 60 201 10.0 11.0 0.00 0.00 0.00 84 1010.6
20260506095059 60 155 5.0 6.0 0.00 0.00 0.00 84 1010.2
20260506094558 60 0.0 14.0 0.00 0.00 0.00 84 1010.2
20260506094057 60 150 3.0 9.0 0.00 0.00 0.00 84 1010.2
20260506093557 60 228 9.0 13.0 0.00 0.00 0.00 84 1010.5
20260506093057 60 192 1.0 11.0 0.00 0.00 0.00 84 1010.4
20260506092558 60 210 6.0 7.0 0.00 0.00 0.00 83 1010.5
20260506092057 60 244 2.0 7.0 0.00 0.00 0.00 83 1010.3
20260506091636 60 217 2.0 5.0 0.00 0.00 0.00 83 1010.4
20260506091016 60 250 4.0 6.0 0.00 0.00 0.00 83 1010.4
20260506090556 60 226 9.0 11.0 0.00 0.00 0.00 83 1010.4
20260506090056 60 189 5.0 5.0 0.00 0.00 0.00 83 1010.2
20260506085555 60 217 5.0 6.0 0.00 0.00 0.00 82 1010.4
20260506085056 61 140 5.0 12.0 0.00 0.00 0.00 82 1010.6
20260506084555 60 220 6.0 13.0 0.00 0.00 0.00 82 1010.4
20260506084115 61 151 4.0 9.0 0.00 0.00 0.00 82 1010.5
20260506083615 61 236 4.0 11.0 0.00 0.00 0.00 81 1010.7
20260506083115 61 187 5.0 6.0 0.00 0.00 0.00 81 1010.4
20260506082554 61 224 1.0 6.0 0.00 0.00 0.00 81 1010.4
20260506082055 61 264 3.0 11.0 0.00 0.00 0.00 81 1010.5
20260506081554 61 234 5.0 11.0 0.00 0.00 0.00 81 1010.2
20260506081054 61 139 6.0 7.0 0.00 0.00 0.00 80 1010.4
20260506080554 61 235 4.0 13.0 0.00 0.00 0.00 80 1010.5
20260506073052 62 171 5.0 11.0 0.00 0.00 0.00 78 1010.5
20260506072551 62 208 7.0 15.0 0.00 0.00 0.00 78 1010.5
20260506072052 62 255 2.0 12.0 0.00 0.00 0.00 78 1010.4
20260506071551 62 220 5.0 11.0 0.00 0.00 0.00 78 1010.2
20260506071051 62 193 3.0 11.0 0.00 0.00 0.00 77 1010.4
20260506070551 62 224 4.0 10.0 0.00 0.00 0.00 77 1010.4
20260506062050 63 229 9.0 12.0 0.00 0.00 0.00 74 1010.0
20260506061549 63 204 3.0 15.0 0.00 0.00 0.00 74 1010.1
20260506061049 63 223 7.0 16.0 0.00 0.00 0.00 73 1010.1
20260506060608 63 282 5.0 10.0 0.00 0.00 0.00 73 1010.0
20260506051046 64 187 4.0 13.0 0.00 0.00 0.00 69 1010.4
20260506050446 64 258 5.0 15.0 0.00 0.00 0.00 69 1010.7
20260506045045 64 251 4.0 14.0 0.00 0.00 0.00 68 1010.5
20260506044545 64 206 9.0 12.0 0.00 0.00 0.00 68 1010.5
20260506044045 64 221 7.0 11.0 0.00 0.00 0.00 67 1010.5
20260506043545 64 219 9.0 11.0 0.00 0.00 0.00 67 1010.6
20260506043104 64 259 2.0 11.0 0.00 0.00 0.00 67 1010.8
20260506042545 64 227 5.0 14.0 0.00 0.00 0.00 67 1010.6
20260506042044 64 175 6.0 12.0 0.00 0.00 0.00 66 1010.5
20260506041544 64 166 7.0 14.0 0.00 0.00 0.00 66 1010.6
20260506041043 64 227 4.0 21.0 0.00 0.00 0.00 66 1010.6
20260506040544 64 224 7.0 8.0 0.00 0.00 0.00 66 1010.7
20260506035943 64 181 7.0 15.0 0.00 0.00 0.00 66 1010.5
20260506035443 64 226 6.0 11.0 0.00 0.00 0.00 66 1010.6
20260506034943 65 182 9.0 19.0 0.00 0.00 0.00 65 1010.5
20260506034442 64 175 9.0 15.0 0.00 0.00 0.00 65 1010.7
20260506034002 64 161 6.0 13.0 0.00 0.00 0.00 65 1010.4
20260506033442 64 165 9.0 12.0 0.00 0.00 0.00 66 1010.5
20260506032942 64 260 2.0 11.0 0.00 0.00 0.00 66 1010.5
20260506032441 64 134 1.0 16.0 0.00 0.00 0.00 66 1010.2
20260506031941 64 175 7.0 12.0 0.00 0.00 0.00 65 1010.4
20260506031441 64 185 4.0 12.0 0.00 0.00 0.00 65 1010.6
20260506030941 64 189 3.0 13.0 0.00 0.00 0.00 66 1010.4
20260506030501 64 134 5.0 17.0 0.00 0.00 0.00 66 1010.5
20260506025840 64 180 4.0 14.0 0.00 0.00 0.00 66 1010.4
20260506025340 64 169 3.0 8.0 0.00 0.00 0.00 66 1010.4
20260506024840 64 233 4.0 15.0 0.00 0.00 0.00 65 1010.5
20260506024400 64 214 8.0 16.0 0.00 0.00 0.00 65 1010.4
20260506023840 64 227 13.0 15.0 0.00 0.00 0.00 65 1010.5
20260506023340 64 163 9.0 15.0 0.00 0.00 0.00 65 1010.7
20260506022919 64 188 9.0 16.0 0.00 0.00 0.00 65 1010.4
20260506022339 64 161 10.0 15.0 0.00 0.00 0.00 65 1010.5
20260506021839 64 247 7.0 14.0 0.00 0.00 0.00 64 1010.4
20260506021338 64 179 2.0 14.0 0.00 0.00 0.00 64 1010.2